Weather Service Report


354 
ASUS44 KLIX 312305
RWRLA 
LOUISIANA WEATHER ROUNDUP
NATIONAL WEATHER SERVICE NEW ORLEANS LA
500 PM CST SAT JAN 31 2015

NOTE: "FAIR" INDICATES FEW OR NO CLOUDS BELOW 12,000 FEET WITH NO
      SIGNIFICANT WEATHER AND/OR OBSTRUCTIONS TO VISIBILITY.
      SKY/WX - SKY CONDITION AND SIGNIFICANT WEATHER.
      TMP - AIR TEMPERATURE.    DP   - DEWPOINT TEMPERATURE.
      RH  - RELATIVE HUMIDITY.  PRES - PRESSURE.
      HX  - HEAT INDEX.         WCI  - WIND CHILL INDEX.

*  THESE STATIONS ARE NOT NWS OR FAA STATIONS AND ARE NOT UNDER
   NWS QUALITY CONTROL.

LAZ040-048-061>063-065-066-069-010000-
SOUTHEAST LOUISIANA
  
CITY           SKY/WX    TMP DP  RH WIND       PRES   REMARKS
N.O. AUDUBON     N/A     59  53  81 MISG        N/A                   
N.O. INTL ARPT CLOUDY    58  48  69 E9        30.18S                  
N.O. LAKEFRONT MOCLDY    59  49  69 E15       30.19S                  
N.O. DOWNTOWN* NOT AVBL                                               
SLIDELL        MOCLDY    58  47  66 E6        30.19F                  
BATON ROUGE    MOCLDY    59  46  62 E12       30.16F                  
BOOTHVILLE     PTCLDY    61  53  75 E7        30.17F                  
BELLE CHASSE   MOCLDY    61  49  64 E12       30.17S                  
BOGALUSA*        N/A     62  45  53 SE8       30.20F                  
GALLIANO*      CLOUDY    64  52  65 MISG      30.17R                  
NEW ROADS*     FAIR      61  46  57 E9        30.15F                  
GONZALES*      FAIR      58  49  73 NE7       30.17S                  
HAMMOND*       CLOUDY    59  46  63 SE7       30.20S                  
HOUMA*         PTCLDY    63  52  67 E14       30.16S                  
PORT FOURCHON* CLEAR     64  55  72 E13G20    30.18S                  

$$

LAZ041-044-053-054-010000-
SOUTHWEST LOUISIANA
  
CITY           SKY/WX    TMP DP  RH WIND       PRES   REMARKS
LAKE CHARLES   PTCLDY    62  52  69 SE15      30.09F                  
LAFAYETTE      CLOUDY    63  49  60 VRB7      30.13F                  
PATTERSON      CLOUDY    63  48  59 E13       30.15S                  
SALT POINT       N/A     63  52  67 E8        30.12F                  
NEW IBERIA     MOCLDY    63  49  60 E13       30.13F                  
CHENAULT AIRPK NOT AVBL                                               

$$

LAZ027-028-010000-
CENTRAL LOUISIANA
  
CITY           SKY/WX    TMP DP  RH WIND       PRES   REMARKS
FORT POLK      CLOUDY    59  47  65 SE8       30.10S                  
ALEXANDRIA INT CLOUDY    58  42  55 SE9       30.11F                  
ALEXANDRIA     CLOUDY    60  41  49 E6        30.12F                  

$$

LAZ001-002-010000-
NORTHWEST LOUISIANA
  
CITY           SKY/WX    TMP DP  RH WIND       PRES   REMARKS
SHREVEPORT     CLOUDY    58  34  40 SE12      30.08F                  
BARKSDALE AFB  CLOUDY    55  35  46 E7        30.09F                  
DTN SHREVEPORT CLOUDY    55  32  41 E9        30.09F                  

$$

LAZ014-016-010000-
NORTHEAST LOUISIANA
  
CITY           SKY/WX    TMP DP  RH WIND       PRES   REMARKS
MONROE         MOCLDY    55  32  41 E5        30.15F                  
TALLULAH       CLOUDY    58  34  40 SE6       30.16F                  

$$



389 
ASUS44 KLIX 312305
RWRLIX
NEW ORLEANS REGIONAL WEATHER ROUNDUP
NATIONAL WEATHER SERVICE NEW ORLEANS LA
500 PM CST SAT JAN 31 2015

NOTE: "FAIR" INDICATES FEW OR NO CLOUDS BELOW 12,000 FEET WITH NO
      SIGNIFICANT WEATHER AND/OR OBSTRUCTIONS TO VISIBILITY.
      SKY/WX - SKY CONDITION AND SIGNIFICANT WEATHER.
      TMP - AIR TEMPERATURE.     DP    - DEWPOINT TEMPERATURE.
      RH  - RELATIVE HUMIDITY.   PRES  - PRESSURE.
      HI  - HEAT INDEX.          WCI   - WIND CHILL INDEX.

*  THESE STATIONS ARE NOT NWS OR FAA STATIONS AND ARE NOT UNDER
   NWS QUALITY CONTROL. 

LAZ038-040-048-061>063-065>067-069-010000-
SOUTHEAST LOUISIANA
  
CITY           SKY/WX    TMP DP  RH WIND       PRES   REMARKS
N.O. AUDUBON     N/A     59  53  81 MISG        N/A                   
N.O. INTL ARPT CLOUDY    58  48  69 E9        30.18S                  
N.O. LAKEFRONT MOCLDY    59  49  69 E15       30.19S                  
N.O. DOWNTOWN* NOT AVBL                                               
SLIDELL        MOCLDY    58  47  66 E6        30.19F                  
BATON ROUGE    MOCLDY    59  46  62 E12       30.16F                  
BOOTHVILLE     PTCLDY    61  53  75 E7        30.17F                  
BELLE CHASSE   MOCLDY    61  49  64 E12       30.17S                  
BOGALUSA*        N/A     62  45  53 SE8       30.20F                  
GALLIANO*      CLOUDY    64  52  65 MISG      30.17R                  
NEW ROADS*       N/A     61  46  57 E9        30.15F                  
GONZALES*        N/A     58  49  73 NE7       30.17S                  
HAMMOND*       CLOUDY    59  46  63 SE7       30.20S                  
HOUMA*         PTCLDY    63  52  67 E14       30.16S                  
PORT FOURCHON* CLEAR     64  55  72 E13G20    30.18S                  

$$

MSZ070-080>082-010000-
SOUTHERN MISSISSIPPI
  
CITY           SKY/WX    TMP DP  RH WIND       PRES   REMARKS
MCCOMB         MOCLDY    57  36  45 SE3       30.17F                  
GULFPORT       MOCLDY    57  46  66 E13       30.21S                  
BILOXI         MOCLDY    58  47  66 SE10      30.22R                  
PASCAGOULA     PTCLDY    56  44  64 SE7       30.22S                  
STENNIS ARPT*  CLEAR     55  45  67 E8        30.22S                  

$$

COASTAL OBSERVATIONS
LAKE AND NEARSHORE STATIONS
  
STATION/POSITION TIME  TEMP    WIND        PRES    WAVE
                       AIR SEA DIR/SP/G            HT/PER
                 (UTC) (F)     (DEG/KT/KT) (MB)    (FT/S)
PASCAGOULA       2300   58     100/  9/ 15 1022.6
WAVELAND YACHT   2300   55     100/ 11/ 13 1022.3
GRAND ISLE       2300   63 62  100/ 12/ 16 1021.6
SOUTHWEST PASS   2300   64 48  110/ 17/ 19 1021.2
NEW CANAL        2300   57 56   80/  6/ 13 1022.2
SHELL BEACH      2300   59 57   90/ 12/ 14 1022.0

OFFSHORE STATIONS
  
STATION/POSITION TIME  TEMP    WIND        PRES    WAVE
                       AIR SEA DIR/SP/G            HT/PER
                 (UTC) (F)     (DEG/KT/KT) (MB)    (FT/S)
64 S DAUPHIN ISL 2246   62 69  100/ 19/ 23 1022.2    5/ 7

$$


Return to Home page


Western Regional Climate Center, wrcc@dri.edu